GW2039 Weather Reports


Display with metric or nautical units.
time (UTC)temp
F
wind
direction
speed
MPH
gust
MPH
rain 1hr
in
rain 24hr
in
rain mn
in
humidity
%
barometer
mb
20260905210303 82 49 1.0 4.0 0.00 0.00 0.00 90 1008.2
20260905210204 82 91 2.0 4.0 0.00 0.00 0.00 90 1008.2
20260905210011 82 39 2.0 4.0 0.00 0.00 0.00 90 1008.2
20260905205901 82 61 2.0 4.0 0.00 0.00 0.00 90 1008.3
20260905205759 82 74 2.0 4.0 0.00 0.00 0.00 90 1008.3
20260905205659 82 61 2.0 4.0 0.00 0.00 0.00 90 1008.3
20260905205558 82 329 2.0 4.0 0.00 0.00 0.00 90 1008.4
20260905205504 82 42 1.0 4.0 0.00 0.00 0.00 89 1008.3
20260905205404 82 63 1.0 4.0 0.00 0.00 0.00 89 1008.4
20260905205306 82 62 2.0 4.0 0.00 0.00 0.00 89 1008.3
20260905205205 82 68 2.0 4.0 0.00 0.00 0.00 89 1008.4
20260905205102 82 55 2.0 4.0 0.00 0.00 0.00 89 1008.3
20260905205004 82 76 2.0 4.0 0.00 0.00 0.00 89 1008.4
20260905204859 82 58 1.0 4.0 0.00 0.00 0.00 89 1008.4
20260905204809 82 76 1.0 4.0 0.00 0.00 0.00 89 1008.4
20260905204704 82 34 0.0 4.0 0.00 0.00 0.00 89 1008.4
20260905204605 82 34 1.0 4.0 0.00 0.00 0.00 89 1008.4
20260905204507 82 34 2.0 4.0 0.00 0.00 0.00 89 1008.4
20260905204206 82 68 2.0 4.0 0.00 0.00 0.00 89 1008.5
20260905204058 82 64 2.0 4.0 0.00 0.00 0.00 89 1008.5
20260905204008 82 84 3.0 4.0 0.00 0.00 0.00 89 1008.5
20260905203803 82 45 3.0 4.0 0.00 0.00 0.00 89 1008.7
20260905203659 82 45 3.0 4.0 0.00 0.00 0.00 89 1008.8
20260905203601 82 45 3.0 4.0 0.00 0.00 0.00 89 1008.5
20260905203544 82 45 3.0 4.0 0.00 0.00 0.00 89 1008.5
20260905203355 82 74 3.0 4.0 0.00 0.00 0.00 89 1008.6
20260905143218 88 60 2.0 3.0 0.00 0.00 0.00 75 1007.2
20260905143058 88 34 2.0 3.0 0.00 0.00 0.00 75 1007.2
20260905143006 88 55 1.0 3.0 0.00 0.00 0.00 76 1007.2
20260905142858 87 360 1.0 2.0 0.00 0.00 0.00 76 1007.2
20260905142759 88 360 1.0 2.0 0.00 0.00 0.00 76 1007.3
20260905142658 87 360 1.0 2.0 0.00 0.00 0.00 76 1007.2
20260905142500 88 360 1.0 2.0 0.00 0.00 0.00 76 1007.3
20260905142306 88 360 0.0 2.0 0.00 0.00 0.00 76 1007.3
20260905142159 88 360 0.0 2.0 0.00 0.00 0.00 77 1007.3
20260905142100 88 360 0.0 2.0 0.00 0.00 0.00 77 1007.2
20260905142007 88 360 1.0 2.0 0.00 0.00 0.00 77 1007.3
20260905141904 88 360 1.0 2.0 0.00 0.00 0.00 78 1007.3
20260905141800 88 360 0.0 3.0 0.00 0.00 0.00 78 1007.2
20260905141657 88 360 0.0 3.0 0.00 0.00 0.00 78 1007.2
20260905141600 88 360 0.0 3.0 0.00 0.00 0.00 78 1007.3
20260905141505 88 360 0.0 3.0 0.00 0.00 0.00 78 1007.3
20260905141402 88 360 1.0 3.0 0.00 0.00 0.00 79 1007.2
20260905141301 88 31 1.0 3.0 0.00 0.00 0.00 79 1007.2
20260905141200 88 338 1.0 3.0 0.00 0.00 0.00 79 1007.2
20260905141058 88 329 1.0 3.0 0.00 0.00 0.00 78 1007.1
20260905141009 88 346 2.0 3.0 0.00 0.00 0.00 78 1007.2
20260905140700 88 346 0.0 2.0 0.00 0.00 0.00 79 1007.1
20260905140558 88 346 0.0 2.0 0.00 0.00 0.00 79 1007.1
20260905140505 88 346 0.0 2.0 0.00 0.00 0.00 79 1007.1
20260905140300 88 346 1.0 2.0 0.00 0.00 0.00 79 1007.1
20260905140103 88 346 0.0 3.0 0.00 0.00 0.00 79 1007.0
20260905140008 88 346 0.0 3.0 0.00 0.00 0.00 79 1007.0
20260905135859 88 346 1.0 3.0 0.00 0.00 0.00 79 1007.0
20260905135701 88 346 1.0 3.0 0.00 0.00 0.00 79 1007.0
20260905135602 88 346 1.0 3.0 0.00 0.00 0.00 79 1007.1
20260905135502 88 346 1.0 3.0 0.00 0.00 0.00 79 1006.9
20260905135301 88 346 1.0 3.0 0.00 0.00 0.00 79 1006.9
20260905135058 88 327 1.0 3.0 0.00 0.00 0.00 79 1006.9
20260905134900 88 327 0.0 3.0 0.00 0.00 0.00 79 1006.9
20260905134758 88 311 1.0 3.0 0.00 0.00 0.00 79 1006.8
20260905134658 88 311 1.0 3.0 0.00 0.00 0.00 79 1006.8
20260905134500 88 322 1.0 3.0 0.00 0.00 0.00 79 1006.9
20260905134304 88 319 2.0 3.0 0.00 0.00 0.00 78 1006.9
20260905134158 88 317 2.0 3.0 0.00 0.00 0.00 78 1006.9
20260905134006 89 304 1.0 3.0 0.00 0.00 0.00 78 1006.9
20260905133900 89 301 1.0 3.0 0.00 0.00 0.00 78 1006.9
20260905133701 89 305 1.0 3.0 0.00 0.00 0.00 78 1006.9
20260905133601 89 305 2.0 3.0 0.00 0.00 0.00 78 1006.9
20260905133503 89 313 2.0 3.0 0.00 0.00 0.00 78 1006.8
20260905133401 89 342 2.0 3.0 0.00 0.00 0.00 78 1006.8
20260905133258 89 304 2.0 3.0 0.00 0.00 0.00 78 1006.8
20260905133200 89 308 2.0 3.0 0.00 0.00 0.00 78 1006.8
20260905133103 89 316 2.0 3.0 0.00 0.00 0.00 77 1006.8
20260905133000 89 321 2.0 3.0 0.00 0.00 0.00 77 1006.8
20260905132900 89 326 1.0 3.0 0.00 0.00 0.00 78 1006.7
20260905132801 89 274 2.0 3.0 0.00 0.00 0.00 77 1006.8
20260905132700 89 305 1.0 3.0 0.00 0.00 0.00 77 1006.7
20260905132603 89 305 1.0 3.0 0.00 0.00 0.00 77 1006.7
20260905132502 89 269 1.0 3.0 0.00 0.00 0.00 77 1006.7
20260905132400 89 271 1.0 3.0 0.00 0.00 0.00 77 1006.7
20260905132300 89 289 1.0 3.0 0.00 0.00 0.00 77 1006.7
20260905132200 89 264 1.0 3.0 0.00 0.00 0.00 77 1006.6
20260905132058 89 273 2.0 3.0 0.00 0.00 0.00 77 1006.7
20260905132004 89 286 2.0 3.0 0.00 0.00 0.00 76 1006.6
20260905131902 89 282 2.0 3.0 0.00 0.00 0.00 76 1006.6
20260905131802 89 271 2.0 3.0 0.00 0.00 0.00 76 1006.6
20260905131701 90 271 2.0 3.0 0.00 0.00 0.00 76 1006.6
20260905131557 90 279 1.0 3.0 0.00 0.00 0.00 75 1006.7
20260905131504 89 279 1.0 3.0 0.00 0.00 0.00 75 1006.6
20260905131400 90 279 2.0 3.0 0.00 0.00 0.00 75 1006.6
20260905131059 90 263 1.0 4.0 0.00 0.00 0.00 74 1006.6
20260905131005 90 263 2.0 4.0 0.00 0.00 0.00 74 1006.6
20260905130900 90 259 2.0 4.0 0.00 0.00 0.00 74 1006.4
20260905130801 90 257 1.0 4.0 0.00 0.00 0.00 74 1006.5
20260905130702 90 277 1.0 4.0 0.00 0.00 0.00 74 1006.5
20260905130559 90 277 1.0 4.0 0.00 0.00 0.00 74 1006.5
20260905130503 90 248 1.0 4.0 0.00 0.00 0.00 74 1006.4
20260905130400 90 238 1.0 4.0 0.00 0.00 0.00 74 1006.5
20260905130300 90 244 1.0 4.0 0.00 0.00 0.00 74 1006.4
20260905130159 90 236 2.0 4.0 0.00 0.00 0.00 74 1006.4
20260905130100 90 252 2.0 4.0 0.00 0.00 0.00 74 1006.4
20260905125900 90 228 2.0 4.0 0.00 0.00 0.00 73 1006.3
20260905125800 90 210 2.0 4.0 0.00 0.00 0.00 73 1006.3
20260905125657 90 240 2.0 4.0 0.00 0.00 0.00 73 1006.4
20260905125600 90 237 1.0 4.0 0.00 0.00 0.00 73 1006.3
20260905125502 90 223 1.0 6.0 0.00 0.00 0.00 73 1006.3
20260905125403 90 247 1.0 6.0 0.00 0.00 0.00 73 1006.3
20260905125258 90 225 2.0 6.0 0.00 0.00 0.00 73 1006.3
20260905125200 90 256 2.0 6.0 0.00 0.00 0.00 73 1006.2
20260905125058 90 250 2.0 6.0 0.00 0.00 0.00 73 1006.2
20260905125004 90 267 2.0 6.0 0.00 0.00 0.00 73 1006.2
20260905124901 90 260 2.0 6.0 0.00 0.00 0.00 72 1006.2
20260905124701 90 248 4.0 6.0 0.00 0.00 0.00 72 1006.2
20260905124559 90 261 3.0 6.0 0.00 0.00 0.00 72 1006.2
20260905124502 91 256 3.0 4.0 0.00 0.00 0.00 72 1006.2
20260905124157 91 220 2.0 4.0 0.00 0.00 0.00 71 1006.1
20260905124058 91 242 2.0 4.0 0.00 0.00 0.00 71 1006.1
20260905124005 91 256 2.0 4.0 0.00 0.00 0.00 71 1006.1
20260905123900 91 296 1.0 4.0 0.00 0.00 0.00 71 1006.1
20260905123601 91 267 2.0 4.0 0.00 0.00 0.00 71 1006.1
20260905123504 91 252 2.0 4.0 0.00 0.00 0.00 71 1006.2
20260905123358 91 257 3.0 4.0 0.00 0.00 0.00 71 1006.2
20260905123257 91 263 3.0 4.0 0.00 0.00 0.00 71 1006.1
20260905123157 91 259 2.0 4.0 0.00 0.00 0.00 71 1006.2
20260905123058 91 259 2.0 5.0 0.00 0.00 0.00 71 1006.1
20260905123004 91 261 2.0 5.0 0.00 0.00 0.00 71 1006.1
20260905122859 91 261 2.0 5.0 0.00 0.00 0.00 71 1006.1
20260905122802 91 259 2.0 5.0 0.00 0.00 0.00 71 1006.1
20260905122557 91 244 2.0 5.0 0.00 0.00 0.00 71 1006.1
20260905122500 91 216 2.0 5.0 0.00 0.00 0.00 70 1006.1
20260905122358 91 207 3.0 5.0 0.00 0.00 0.00 70 1006.1
20260905122301 91 261 3.0 5.0 0.00 0.00 0.00 70 1006.1
20260905122204 91 244 3.0 6.0 0.00 0.00 0.00 70 1006.2
20260905122103 91 242 3.0 7.0 0.00 0.00 0.00 70 1006.1
20260905122007 91 205 2.0 7.0 0.00 0.00 0.00 70 1006.2
20260905121900 91 221 2.0 7.0 0.00 0.00 0.00 70 1006.2
20260905121703 92 251 3.0 7.0 0.00 0.00 0.00 70 1006.2
20260905121602 92 259 2.0 7.0 0.00 0.00 0.00 70 1006.2
20260905121358 92 238 4.0 7.0 0.00 0.00 0.00 69 1006.2
20260905121202 92 239 2.0 5.0 0.00 0.00 0.00 70 1006.3
20260905121057 92 236 1.0 5.0 0.00 0.00 0.00 70 1006.2
20260905121006 92 252 1.0 5.0 0.00 0.00 0.00 70 1006.2
20260905120858 92 224 2.0 5.0 0.00 0.00 0.00 70 1006.1
20260905120759 92 223 3.0 5.0 0.00 0.00 0.00 70 1006.1
20260905120701 92 203 3.0 5.0 0.00 0.00 0.00 70 1006.1
20260905120602 92 229 3.0 5.0 0.00 0.00 0.00 70 1006.1
20260905120505 92 231 2.0 5.0 0.00 0.00 0.00 70 1006.0
20260905120401 92 232 2.0 5.0 0.00 0.00 0.00 70 1006.0
20260905120302 92 198 2.0 5.0 0.00 0.00 0.00 70 1006.0
20260905120157 92 198 1.0 5.0 0.00 0.00 0.00 70 1006.0
20260905120100 92 209 2.0 5.0 0.00 0.00 0.00 69 1006.0
20260905120007 92 269 3.0 5.0 0.00 0.00 0.00 69 1006.0
20260905115902 92 242 3.0 5.0 0.00 0.00 0.00 69 1006.0
20260905115703 92 234 3.0 5.0 0.00 0.00 0.00 70 1006.0
20260905115557 92 244 2.0 4.0 0.00 0.00 0.00 70 1006.1
20260905115359 92 252 2.0 4.0 0.00 0.00 0.00 69 1006.0
20260905115300 92 238 2.0 5.0 0.00 0.00 0.00 69 1006.0
20260905115201 92 241 2.0 5.0 0.00 0.00 0.00 70 1006.0
20260905115001 92 219 1.0 5.0 0.00 0.00 0.00 70 1005.9
20260905114900 92 186 0.0 5.0 0.00 0.00 0.00 70 1006.0
20260905114757 92 227 1.0 5.0 0.00 0.00 0.00 70 1006.0
20260905114659 92 227 2.0 5.0 0.00 0.00 0.00 70 1006.0
20260905114557 92 286 2.0 7.0 0.00 0.00 0.00 69 1006.0
20260905114503 92 242 2.0 7.0 0.00 0.00 0.00 69 1006.0
20260905114402 92 206 1.0 7.0 0.00 0.00 0.00 69 1006.0
20260905114300 92 258 3.0 8.0 0.00 0.00 0.00 69 1005.9
20260905114058 92 189 3.0 8.0 0.00 0.00 0.00 69 1005.9
20260905114005 92 191 3.0 8.0 0.00 0.00 0.00 69 1005.9
20260905113900 92 224 4.0 8.0 0.00 0.00 0.00 69 1005.9
20260905113803 92 207 4.0 8.0 0.00 0.00 0.00 69 1005.8
20260905113701 92 213 4.0 8.0 0.00 0.00 0.00 69 1005.9
20260905113603 92 191 5.0 8.0 0.00 0.00 0.00 69 1006.0
20260905113502 92 203 4.0 8.0 0.00 0.00 0.00 69 1005.9
20260905113401 92 236 2.0 5.0 0.00 0.00 0.00 69 1005.9
20260905113257 92 244 2.0 5.0 0.00 0.00 0.00 69 1005.8
20260905113158 92 259 3.0 5.0 0.00 0.00 0.00 69 1005.9
20260905113019 92 196 2.0 5.0 0.00 0.00 0.00 69 1005.9
20260905112757 92 221 2.0 7.0 0.00 0.00 0.00 70 1005.9
20260905112700 92 263 1.0 7.0 0.00 0.00 0.00 69 1006.0
20260905112403 92 244 2.0 7.0 0.00 0.00 0.00 69 1006.0
20260905112305 92 265 2.0 7.0 0.00 0.00 0.00 69 1006.0
20260905112200 92 249 2.0 7.0 0.00 0.00 0.00 69 1006.0
20260905112106 92 261 3.0 7.0 0.00 0.00 0.00 69 1005.9
20260905112010 92 207 2.0 7.0 0.00 0.00 0.00 70 1005.9
20260905111802 92 224 4.0 7.0 0.00 0.00 0.00 69 1006.0
20260905111702 92 223 4.0 7.0 0.00 0.00 0.00 69 1006.0
20260905111558 92 192 5.0 7.0 0.00 0.00 0.00 69 1006.0
20260905111503 92 211 5.0 7.0 0.00 0.00 0.00 69 1006.0
20260905111357 92 214 4.0 8.0 0.00 0.00 0.00 69 1006.0
20260905111257 92 196 4.0 8.0 0.00 0.00 0.00 69 1006.0
20260905111202 92 253 4.0 8.0 0.00 0.00 0.00 69 1006.1
20260905111059 92 250 4.0 6.0 0.00 0.00 0.00 69 1006.1
20260905111007 92 240 3.0 6.0 0.00 0.00 0.00 69 1006.1
20260905110903 92 224 3.0 7.0 0.00 0.00 0.00 69 1006.1
20260905110757 92 234 3.0 7.0 0.00 0.00 0.00 69 1006.2
20260905110703 92 236 4.0 5.0 0.00 0.00 0.00 69 1006.1
20260905110557 92 255 3.0 5.0 0.00 0.00 0.00 69 1006.2
20260905110201 92 221 3.0 6.0 0.00 0.00 0.00 69 1006.2
20260905110011 92 207 2.0 6.0 0.00 0.00 0.00 70 1006.1
20260905105856 92 265 1.0 8.0 0.00 0.00 0.00 69 1006.2
20260905105802 92 252 2.0 8.0 0.00 0.00 0.00 69 1006.2
20260905105656 92 269 3.0 8.0 0.00 0.00 0.00 69 1006.2
20260905105504 92 243 3.0 8.0 0.00 0.00 0.00 70 1006.2
20260905105258 92 262 2.0 8.0 0.00 0.00 0.00 69 1006.3
20260905105201 92 273 4.0 8.0 0.00 0.00 0.00 69 1006.2
20260905105105 92 270 5.0 8.0 0.00 0.00 0.00 68 1006.2
20260905105002 92 301 4.0 8.0 0.00 0.00 0.00 69 1006.3
20260905104901 92 262 4.0 8.0 0.00 0.00 0.00 69 1006.3
20260905104702 92 312 3.0 8.0 0.00 0.00 0.00 68 1006.3
20260905104602 92 284 3.0 8.0 0.00 0.00 0.00 68 1006.2
20260905104402 92 273 5.0 8.0 0.00 0.00 0.00 68 1006.2
20260905104258 92 253 4.0 8.0 0.00 0.00 0.00 68 1006.2
20260905104157 92 267 3.0 8.0 0.00 0.00 0.00 68 1006.2
20260905104058 92 269 3.0 7.0 0.00 0.00 0.00 68 1006.2
20260905104010 92 292 4.0 7.0 0.00 0.00 0.00 68 1006.4
20260905103859 92 288 3.0 7.0 0.00 0.00 0.00 68 1006.4
20260905103800 92 273 3.0 7.0 0.00 0.00 0.00 68 1006.3
20260905103709 92 279 3.0 7.0 0.00 0.00 0.00 68 1006.3
20260905103602 92 268 2.0 7.0 0.00 0.00 0.00 68 1006.4
20260905103502 92 243 3.0 7.0 0.00 0.00 0.00 68 1006.4
20260905103356 92 262 3.0 7.0 0.00 0.00 0.00 68 1006.4
20260905103259 92 263 3.0 7.0 0.00 0.00 0.00 68 1006.5
20260905103159 92 254 3.0 7.0 0.00 0.00 0.00 67 1006.6
20260905103057 92 244 4.0 7.0 0.00 0.00 0.00 68 1006.7
20260905103009 92 243 4.0 7.0 0.00 0.00 0.00 68 1006.6
20260905102900 92 245 4.0 8.0 0.00 0.00 0.00 67 1006.6
20260905102700 92 252 6.0 8.0 0.00 0.00 0.00 67 1006.5
20260905102556 92 304 5.0 8.0 0.00 0.00 0.00 66 1006.4
20260905102513 92 309 4.0 8.0 0.00 0.00 0.00 66 1006.4
20260905055400 87 276 2.0 4.0 0.00 0.00 0.00 77 1011.0
20260905055259 87 276 2.0 4.0 0.00 0.00 0.00 77 1010.9
20260905055056 87 276 2.0 4.0 0.00 0.00 0.00 77 1010.9
20260905043601 85 213 2.0 6.0 0.00 0.00 0.00 79 1010.8
20260905043458 85 194 3.0 6.0 0.00 0.00 0.00 78 1010.8
20260905043358 85 223 4.0 6.0 0.00 0.00 0.00 78 1010.7
20260905043259 85 209 4.0 6.0 0.00 0.00 0.00 78 1010.8
20260905043159 85 155 3.0 6.0 0.00 0.00 0.00 78 1010.7
20260905043059 85 185 4.0 7.0 0.00 0.00 0.00 78 1010.7
20260905043007 85 170 3.0 8.0 0.00 0.00 0.00 79 1010.6
20260905042759 85 213 2.0 8.0 0.00 0.00 0.00 78 1010.6
20260905042658 85 132 3.0 8.0 0.00 0.00 0.00 78 1010.5
20260905042602 85 175 4.0 8.0 0.00 0.00 0.00 78 1010.6
20260905042502 85 188 4.0 8.0 0.00 0.00 0.00 78 1010.6
20260905042255 85 174 6.0 8.0 0.00 0.00 0.00 78 1010.5
20260905042200 85 192 5.0 8.0 0.00 0.00 0.00 78 1010.5
20260905042059 85 198 3.0 6.0 0.00 0.00 0.00 79 1010.5
20260905042004 84 215 3.0 6.0 0.00 0.00 0.00 79 1010.4
20260905041855 84 215 3.0 6.0 0.00 0.00 0.00 79 1010.3
20260905041807 84 215 3.0 6.0 0.00 0.00 0.00 79 1010.3
20260905013602 79 94 6.0 9.0 0.00 0.00 0.00 78 1008.7
20260905013506 79 86 6.0 9.0 0.00 0.00 0.00 78 1008.8
20260905013403 79 68 5.0 8.0 0.00 0.00 0.00 78 1008.8
20260905013258 79 101 5.0 8.0 0.00 0.00 0.00 78 1008.8
20260905013203 79 114 5.0 8.0 0.00 0.00 0.00 78 1008.8
20260905013102 79 110 4.0 8.0 0.00 0.00 0.00 78 1008.8
20260905012859 79 94 4.0 8.0 0.00 0.00 0.00 78 1008.7
20260905012759 79 92 4.0 8.0 0.00 0.00 0.00 78 1008.8
20260905012703 79 59 5.0 8.0 0.00 0.00 0.00 78 1008.8
20260905012605 79 97 4.0 7.0 0.00 0.00 0.00 78 1008.8
20260905012403 79 122 3.0 7.0 0.00 0.00 0.00 78 1008.8
20260905012300 79 96 3.0 7.0 0.00 0.00 0.00 78 1008.8
20260905012205 79 87 4.0 7.0 0.00 0.00 0.00 78 1008.8
20260905012103 79 102 4.0 7.0 0.00 0.00 0.00 78 1008.8
20260905012002 79 90 3.0 6.0 0.00 0.00 0.00 78 1008.8
20260905011903 79 110 3.0 6.0 0.00 0.00 0.00 78 1008.7
20260905011803 79 74 3.0 6.0 0.00 0.00 0.00 78 1008.8
20260905011659 79 73 3.0 6.0 0.00 0.00 0.00 78 1008.8
20260905011605 79 111 3.0 6.0 0.00 0.00 0.00 78 1008.8
20260905011507 79 115 3.0 6.0 0.00 0.00 0.00 78 1008.7
20260905011402 79 71 4.0 6.0 0.00 0.00 0.00 78 1008.8
20260905011159 79 50 3.0 6.0 0.00 0.00 0.00 78 1008.8
20260905011102 79 61 4.0 6.0 0.00 0.00 0.00 78 1008.8
20260905011006 79 105 3.0 6.0 0.00 0.00 0.00 78 1008.8
20260905010902 79 113 3.0 6.0 0.00 0.00 0.00 78 1008.8
20260905010801 79 85 3.0 4.0 0.00 0.00 0.00 78 1008.8
20260905010703 79 96 3.0 4.0 0.00 0.00 0.00 78 1008.9
20260905010558 79 80 3.0 4.0 0.00 0.00 0.00 78 1008.8
20260905010500 79 71 2.0 4.0 0.00 0.00 0.00 79 1008.8
20260905010359 79 78 2.0 4.0 0.00 0.00 0.00 79 1008.8
20260905010203 79 79 2.0 4.0 0.00 0.00 0.00 79 1008.9
20260905005958 79 113 1.0 4.0 0.00 0.00 0.00 78 1008.9
20260905005558 79 51 0.0 3.0 0.00 0.00 0.00 78 1008.9
20260905005459 79 91 0.0 3.0 0.00 0.00 0.00 78 1009.0
20260905005355 79 63 0.0 4.0 0.00 0.00 0.00 78 1009.0
20260905005256 79 110 1.0 4.0 0.00 0.00 0.00 78 1009.0
20260905005159 79 110 1.0 4.0 0.00 0.00 0.00 78 1009.0
20260905005056 79 111 2.0 4.0 0.00 0.00 0.00 78 1008.8
20260905005002 79 106 1.0 4.0 0.00 0.00 0.00 78 1009.0
20260905004857 79 95 1.0 6.0 0.00 0.00 0.00 79 1008.9
20260905004806 79 98 1.0 6.0 0.00 0.00 0.00 79 1008.9
20260904233503 78 129 3.0 5.0 0.00 0.00 0.00 80 1008.4
20260904233358 78 55 3.0 5.0 0.00 0.00 0.00 80 1008.4
20260904233301 78 67 3.0 5.0 0.00 0.00 0.00 80 1008.4
20260904233201 78 77 3.0 5.0 0.00 0.00 0.00 80 1008.4
20260904233058 78 76 3.0 6.0 0.00 0.00 0.00 80 1008.5
20260904233002 79 64 3.0 6.0 0.00 0.00 0.00 80 1008.4
20260904232802 79 69 3.0 5.0 0.00 0.00 0.00 80 1008.4
20260904232702 79 99 2.0 5.0 0.00 0.00 0.00 80 1008.5
20260904232601 79 42 2.0 5.0 0.00 0.00 0.00 80 1008.5
20260904232505 79 65 2.0 5.0 0.00 0.00 0.00 80 1008.6
20260904232400 79 85 2.0 6.0 0.00 0.00 0.00 80 1008.6
20260904232306 79 61 3.0 6.0 0.00 0.00 0.00 80 1008.6
20260904232158 79 74 2.0 6.0 0.00 0.00 0.00 80 1008.6
20260904232101 79 59 2.0 6.0 0.00 0.00 0.00 80 1008.6
20260904232005 79 78 2.0 6.0 0.00 0.00 0.00 80 1008.5
20260904231901 79 66 2.0 6.0 0.00 0.00 0.00 80 1008.5
20260904231759 79 51 3.0 6.0 0.00 0.00 0.00 80 1008.5
20260904231703 79 103 4.0 6.0 0.00 0.00 0.00 80 1008.5
20260904231600 79 50 4.0 6.0 0.00 0.00 0.00 80 1008.5
20260904231503 79 77 3.0 5.0 0.00 0.00 0.00 80 1008.5
20260904231401 79 96 3.0 5.0 0.00 0.00 0.00 80 1008.5
20260904231301 79 65 4.0 5.0 0.00 0.00 0.00 80 1008.6
20260904231202 79 54 3.0 5.0 0.00 0.00 0.00 80 1008.5
20260904231100 79 89 3.0 5.0 0.00 0.00 0.00 80 1008.4
20260904231004 79 53 3.0 5.0 0.00 0.00 0.00 80 1008.4
20260904230900 79 92 3.0 5.0 0.00 0.00 0.00 80 1008.4
20260904230801 79 75 3.0 5.0 0.00 0.00 0.00 80 1008.4
20260904230700 79 68 3.0 6.0 0.00 0.00 0.00 80 1008.4
20260904230601 79 51 3.0 6.0 0.00 0.00 0.00 80 1008.4
20260904230400 79 52 3.0 5.0 0.00 0.00 0.00 80 1008.3
20260904230201 79 97 2.0 5.0 0.00 0.00 0.00 80 1008.3
20260904225858 79 121 2.0 5.0 0.00 0.00 0.00 80 1008.3
20260904225802 79 121 3.0 5.0 0.00 0.00 0.00 80 1008.3
20260904225658 79 90 2.0 5.0 0.00 0.00 0.00 80 1008.3
20260904225600 79 71 1.0 5.0 0.00 0.00 0.00 80 1008.3
20260904225505 79 48 3.0 5.0 0.00 0.00 0.00 80 1008.3
20260904225400 79 65 3.0 5.0 0.00 0.00 0.00 80 1008.4
20260904225301 79 67 2.0 4.0 0.00 0.00 0.00 80 1008.4
20260904225159 79 115 2.0 4.0 0.00 0.00 0.00 80 1008.4
20260904225101 79 46 2.0 5.0 0.00 0.00 0.00 80 1008.4
20260904225006 79 79 2.0 5.0 0.00 0.00 0.00 80 1008.4
20260904224801 79 93 2.0 5.0 0.00 0.00 0.00 80 1008.4
20260904224503 79 64 2.0 5.0 0.00 0.00 0.00 80 1008.4
20260904224402 79 108 2.0 5.0 0.00 0.00 0.00 80 1008.4
20260904224258 79 89 2.0 5.0 0.00 0.00 0.00 80 1008.4
20260904224101 79 151 3.0 6.0 0.00 0.00 0.00 80 1008.4
20260904224002 79 62 3.0 6.0 0.00 0.00 0.00 80 1008.4
20260904223859 79 91 2.0 5.0 0.00 0.00 0.00 80 1008.4
20260904223701 79 81 3.0 10.0 0.00 0.00 0.00 80 1008.5
20260904223559 79 91 2.0 10.0 0.00 0.00 0.00 80 1008.4
20260904223503 79 137 2.0 10.0 0.00 0.00 0.00 80 1008.5
20260904223403 79 75 2.0 10.0 0.00 0.00 0.00 80 1008.5
20260904223302 79 164 2.0 10.0 0.00 0.00 0.00 80 1008.5
20260904223201 79 63 3.0 10.0 0.00 0.00 0.00 80 1008.4
20260904223059 79 71 3.0 10.0 0.00 0.00 0.00 80 1008.3
20260904223003 79 76 4.0 10.0 0.00 0.00 0.00 80 1008.3
20260904222900 79 94 4.0 10.0 0.00 0.00 0.00 80 1008.4
20260904222658 79 121 4.0 8.0 0.00 0.00 0.00 80 1008.4
20260904222558 79 118 4.0 8.0 0.00 0.00 0.00 80 1008.3
20260904222501 79 143 3.0 8.0 0.00 0.00 0.00 80 1008.4
20260904222359 79 94 4.0 8.0 0.00 0.00 0.00 80 1008.4
20260904222300 79 95 5.0 8.0 0.00 0.00 0.00 80 1008.4
20260904222102 79 101 4.0 8.0 0.00 0.00 0.00 80 1008.3
20260904221801 79 82 3.0 8.0 0.00 0.00 0.00 80 1008.3
20260904221702 79 109 3.0 6.0 0.00 0.00 0.00 80 1008.3
20260904221600 79 67 4.0 6.0 0.00 0.00 0.00 80 1008.3
20260904221505 79 103 3.0 6.0 0.00 0.00 0.00 79 1008.3
20260904221400 80 67 3.0 7.0 0.00 0.00 0.00 79 1008.4
20260904221258 80 51 3.0 7.0 0.00 0.00 0.00 79 1008.3
20260904221158 80 83 2.0 7.0 0.00 0.00 0.00 79 1008.4
20260904221004 80 109 2.0 7.0 0.00 0.00 0.00 79 1008.4
20260904220902 80 119 3.0 7.0 0.00 0.00 0.00 79 1008.5
20260904220801 80 55 4.0 7.0 0.00 0.00 0.00 79 1008.4
20260904220701 80 107 3.0 7.0 0.00 0.00 0.00 79 1008.5
20260904220602 80 116 3.0 7.0 0.00 0.00 0.00 79 1008.5
20260904220504 80 61 3.0 8.0 0.00 0.00 0.00 79 1008.5
20260904220401 80 105 3.0 8.0 0.00 0.00 0.00 79 1008.5
20260904220303 80 88 2.0 8.0 0.00 0.00 0.00 79 1008.5
20260904220202 80 76 3.0 8.0 0.00 0.00 0.00 79 1008.5
20260904220059 80 90 3.0 8.0 0.00 0.00 0.00 79 1008.5
20260904220010 80 72 3.0 8.0 0.00 0.00 0.00 79 1008.5
20260904215901 80 100 4.0 8.0 0.00 0.00 0.00 79 1008.5
20260904215759 80 117 4.0 8.0 0.00 0.00 0.00 79 1008.5
20260904215658 80 30 3.0 8.0 0.00 0.00 0.00 79 1008.4
20260904215504 80 81 3.0 8.0 0.00 0.00 0.00 79 1008.5
20260904215359 80 117 3.0 8.0 0.00 0.00 0.00 78 1008.5
20260904215258 80 85 3.0 8.0 0.00 0.00 0.00 78 1008.6
20260904215200 80 59 4.0 8.0 0.00 0.00 0.00 78 1008.6
20260904215101 80 115 4.0 8.0 0.00 0.00 0.00 78 1008.6
20260904215005 80 113 5.0 8.0 0.00 0.00 0.00 78 1008.6
20260904214901 80 107 3.0 8.0 0.00 0.00 0.00 78 1008.5
20260904214800 80 17 3.0 8.0 0.00 0.00 0.00 78 1008.5
20260904214701 80 116 3.0 8.0 0.00 0.00 0.00 78 1008.6
20260904214558 80 80 2.0 8.0 0.00 0.00 0.00 78 1008.5
20260904214504 80 85 3.0 8.0 0.00 0.00 0.00 78 1008.5
20260904214402 80 48 3.0 8.0 0.00 0.00 0.00 78 1008.6
20260904214302 80 108 4.0 10.0 0.00 0.00 0.00 78 1008.6
20260904214157 80 163 4.0 10.0 0.00 0.00 0.00 78 1008.6
20260904214058 80 40 4.0 10.0 0.00 0.00 0.00 78 1008.6
20260904213901 80 67 4.0 10.0 0.00 0.00 0.00 78 1008.7
20260904213801 80 119 5.0 10.0 0.00 0.00 0.00 78 1008.8
20260904213701 80 45 5.0 10.0 0.00 0.00 0.00 78 1008.8
20260904213507 80 60 4.0 10.0 0.00 0.00 0.00 78 1008.8
20260904213400 80 127 4.0 9.0 0.00 0.00 0.00 78 1008.8
20260904213159 80 31 4.0 9.0 0.00 0.00 0.00 79 1008.8
20260904213007 80 94 3.0 9.0 0.00 0.00 0.00 79 1008.6
20260904212903 80 88 4.0 9.0 0.00 0.00 0.00 79 1008.8
20260904212803 80 140 4.0 9.0 0.00 0.00 0.00 80 1008.7
20260904212402 81 82 4.0 8.0 0.00 0.00 0.00 82 1008.8
20260904212159 81 75 2.0 8.0 0.00 0.00 0.00 82 1008.8
20260904212058 81 88 2.0 9.0 0.00 0.00 0.00 82 1008.7
20260904212005 81 69 2.0 9.0 0.00 0.00 0.00 82 1008.8
20260904211900 81 76 2.0 9.0 0.00 0.00 0.00 82 1008.8
20260904211802 81 55 2.0 9.0 0.00 0.00 0.00 82 1008.8
20260904211603 81 108 4.0 9.0 0.00 0.00 0.00 82 1008.7
20260904211502 81 86 6.0 9.0 0.00 0.00 0.00 82 1008.8
20260904211404 81 92 5.0 9.0 0.00 0.00 0.00 82 1008.7
20260904211300 81 103 5.0 9.0 0.00 0.00 0.00 82 1008.7
20260904211101 81 111 5.0 8.0 0.00 0.00 0.00 83 1008.7
20260904211006 81 123 4.0 8.0 0.00 0.00 0.00 83 1008.7
20260904210901 81 82 4.0 7.0 0.00 0.00 0.00 83 1008.7
20260904210802 81 111 4.0 7.0 0.00 0.00 0.00 83 1008.7
20260904210604 81 76 4.0 8.0 0.00 0.00 0.00 83 1008.6
20260904210501 81 115 5.0 8.0 0.00 0.00 0.00 83 1008.6
20260904210404 81 121 4.0 8.0 0.00 0.00 0.00 83 1008.7